[[{"header":{"parameterUnit":"m.s-1","parameterCategory":2,"la1":30.2992,"la2":30.254,"lo1":-89.0895,"lo2":-89.0443,"dy":0.0025,"dx":0.0025,"nx":19,"ny":19,"refTime":"2026-03-10T03:00:00:Z","depth":"0","parameterNumber":2,"parameterNumberName":"U-component_of_CURRENTS"},"data":[0,0,0,0.1147,0.1148,0.1182,0.1182,0.1209,0.121,0,0,0,0,0,0,0,0,0,0,0,0.1132,0.1132,0.1147,0.1148,0.1182,0.1182,0.1209,0.121,0,0,0,0,0,0,0,0,0,0,0,0.1131,0.1132,0.1132,0.1148,0.1182,0.1182,0.1209,0.1186,0,0,0,0,0,0,0,0,0,0,0.1154,0.1143,0.1132,0.1132,0.1148,0.1182,0.1182,0.1185,0.1187,0.1191,0,0.12,0,0.121,0.1212,0.1212,0,0,0,0.1141,0.1141,0.1154,0.1132,0.1148,0.1182,0.1165,0.1186,0.1189,0.1194,0.1201,0.1202,0.121,0.1212,0.1212,0.1262,0.1262,0,0,0.1139,0.1133,0.1152,0.1156,0.1162,0.1164,0.1166,0.1188,0.1191,0.1201,0.1203,0.1211,0.1212,0.1212,0.1262,0.1262,0,0,0,0.1138,0.1132,0.1145,0.1155,0.1165,0.1165,0.1167,0.1189,0.1195,0.1203,0.1211,0.1212,0.1213,0.1261,0.1262,0.1289,0,0,0,0.1137,0.1132,0.1144,0.114,0.1165,0.118,0.1168,0.1193,0.1196,0.1211,0.1212,0.1213,0.1261,0.1262,0.1287,0.1323,0,0,0,0.1129,0.1131,0.1137,0.1139,0.1158,0.118,0.1186,0.1194,0.1201,0.1212,0.1213,0.1261,0.1262,0.1286,0.132,0.1408,0,0,0,0.1118,0.1131,0.1137,0.1157,0.1158,0.1191,0.1186,0.1208,0.1218,0.1212,0.1261,0.1262,0.1286,0.1318,0.1405,0.145,0.1467,0,0,0.1128,0.1132,0.1145,0.1151,0.1182,0.1185,0.1218,0.1228,0.1231,0.1251,0.1252,0.1288,0.132,0.1407,0.1493,0.151,0,0,0,0.1144,0.1152,0.1164,0.1182,0.1205,0.1231,0.1239,0.1253,0.1278,0.1243,0.1296,0.1316,0.137,0.1391,0.1403,0.1447,0.1265,0.1265,0.1265,0.1138,0.1156,0.1176,0.1201,0.1225,0.1262,0.1292,0.1312,0.1299,0.132,0.1343,0.1436,0.1455,0.1466,0.151,0.1336,0.1336,0.1336,0.1336,0.1144,0.1149,0.118,0.1205,0.124,0.1269,0.1335,0.1348,0.1429,0.1382,0.1434,0.1423,0.1482,0.1523,0.1338,0.1337,0.1337,0.1337,0.1337,0.1124,0.1129,0.1148,0.118,0.1224,0.1274,0.1364,0.1418,0.1469,0.152,0.1583,0.1582,0.162,0.1558,0.1559,0.1559,0.156,0.156,0.156,0.1087,0.1108,0.1117,0.1157,0.118,0.1255,0.1393,0.1482,0.1614,0.1645,0.1646,0.1664,0.1505,0.1498,0.1569,0.1567,0.1566,0.1565,0.1565,0.1056,0.1063,0.1076,0.1095,0.1162,0.1226,0.1378,0.1593,0.1716,0.1789,0.1846,0.1722,0.1735,0.1723,0.1722,0.1847,0.1847,0.1847,0.1848,0.1023,0.1032,0.1041,0.1065,0.1124,0.1214,0.1377,0.159,0.1842,0.1958,0.1987,0.1926,0.1913,0.1931,0.1916,0.1916,0.2088,0.2089,0.2089,0.0999,0.1009,0.1005,0.1036,0.1095,0.1201,0.1326,0.1533,0.1917,0.2101,0.2046,0.2036,0.1942,0.1917,0.1936,0.191,0.1906,0,0]},{"header":{"parameterUnit":"m.s-1","parameterCategory":2,"la1":30.2992,"la2":30.254,"lo1":-89.0895,"lo2":-89.0443,"dy":0.0025,"dx":0.0025,"nx":19,"ny":19,"refTime":"2026-03-10T03:00:00:Z","depth":"0","parameterNumber":3,"parameterNumberName":"V-component_of_CURRENTS"},"data":[0,0,0,0.0078,0.0077,0.0028,0.0028,-0.0046,-0.0046,0,0,0,0,0,0,0,0,0,0,0,0.0096,0.0096,0.0078,0.0077,0.0028,0.0028,-0.0046,-0.0046,0,0,0,0,0,0,0,0,0,0,0,0.0096,0.0096,0.0096,0.0077,0.0028,0.0028,-0.0045,-0.0008,0,0,0,0,0,0,0,0,0,0,0.004,0.0065,0.0096,0.0096,0.0076,0.0028,0.0028,-0.0006,-0.001,-0.0024,0,-0.0026,0,-0.0036,-0.0051,-0.0051,0,0,0,0.0069,0.0068,0.0053,0.0096,0.0076,0.0028,0.0048,-0.0008,-0.0013,-0.003,-0.0027,-0.003,-0.0037,-0.0051,-0.0052,-0.0075,-0.0074,0,0,0.0072,0.0086,0.0057,0.005,0.007,0.005,0.0047,-0.0011,-0.0012,-0.0028,-0.0032,-0.0038,-0.0052,-0.0052,-0.0075,-0.0075,0,0,0,0.0085,0.0088,0.0075,0.0053,0.0047,0.0048,0.0045,-0.001,-0.0014,-0.0033,-0.0039,-0.0052,-0.0053,-0.0075,-0.0075,-0.0011,0,0,0,0.0086,0.0096,0.0076,0.0084,0.0048,0.002,0.0048,-0.001,-0.0017,-0.0039,-0.0052,-0.0054,-0.0075,-0.0075,-0.0014,0.0049,0,0,0,0.0097,0.0097,0.0093,0.0085,0.0066,0.0021,0.0012,-0.0012,-0.0021,-0.0051,-0.0054,-0.0076,-0.0075,-0.0016,0.0044,0.0121,0,0,0,0.011,0.0118,0.0094,0.01,0.0067,0.0054,0.0013,-0.0004,-0.0025,-0.0052,-0.0075,-0.0075,-0.0016,0.0041,0.0117,0.0202,0.0226,0,0,0.0129,0.012,0.0124,0.0102,0.0105,0.006,0.0063,0.0017,-0.0022,-0.0059,-0.006,-0.0013,0.0043,0.012,0.0236,0.0259,0,0,0,0.0136,0.0141,0.0137,0.0132,0.0112,0.0106,0.0056,0.0037,0.0006,-0.0031,-0.0019,0.0016,0.0062,0.0104,0.0122,0.0002,-0.0072,-0.0072,-0.0072,0.018,0.0169,0.0182,0.0168,0.0161,0.0133,0.0132,0.0097,0.004,0.004,0.0061,0.016,0.0203,0.0218,0.0092,0.0036,0.0036,0.0037,0.0037,0.022,0.023,0.0221,0.0228,0.0218,0.0218,0.0199,0.0174,0.0191,0.0116,0.0157,0.0162,0.0243,0.01,0.0041,0.004,0.0039,0.0039,0.0039,0.0251,0.0257,0.0258,0.0276,0.0297,0.0283,0.0369,0.033,0.0277,0.0311,0.0365,0.0364,0.0248,0.0329,0.033,0.0331,0.0331,0.0332,0.0332,0.0284,0.0287,0.0315,0.033,0.0361,0.0426,0.0476,0.0524,0.0529,0.0474,0.0474,0.0273,0.025,0.0248,0.0341,0.034,0.0338,0.0338,0.0337,0.0327,0.0327,0.0376,0.0409,0.0503,0.0643,0.0678,0.0795,0.0804,0.082,0.0511,0.0559,0.056,0.0544,0.055,0.0716,0.0716,0.0716,0.0716,0.0361,0.0362,0.0446,0.0525,0.0648,0.075,0.0977,0.1021,0.0845,0.0711,0.0596,0.0505,0.0495,0.0484,0.047,0.047,0.0612,0.0612,0.0611,0.04,0.0419,0.0497,0.0572,0.0714,0.0904,0.112,0.1182,0.0857,0.0588,0.0412,0.0417,0.0256,0.025,0.0206,0.0196,0.0186,0,0]}],[{"header":{"parameterUnit":"m.s-1","parameterCategory":2,"la1":30.2992,"la2":30.254,"lo1":-89.0895,"lo2":-89.0443,"dy":0.0025,"dx":0.0025,"nx":19,"ny":19,"refTime":"2026-03-10T03:00:00:Z","depth":"2","parameterNumber":2,"parameterNumberName":"U-component_of_CURRENTS"},"data":[0,0,0,0.1147,0.1148,0.1188,0.1189,0.1226,0.1226,0,0,0,0,0,0,0,0,0,0,0,0.1131,0.1132,0.1147,0.1148,0.1188,0.1189,0.1226,0.1226,0,0,0,0,0,0,0,0,0,0,0,0.1131,0.1132,0.1132,0.1149,0.1188,0.1189,0.1226,0.1198,0,0,0,0,0,0,0,0,0,0,0.116,0.1148,0.1131,0.1132,0.1149,0.1188,0.1189,0.1197,0.12,0.1205,0,0.1215,0,0.1225,0.1229,0.1229,0,0,0,0.1144,0.1145,0.1159,0.1132,0.1149,0.1188,0.1169,0.1198,0.1202,0.1209,0.1216,0.1217,0.1225,0.1229,0.1229,0.1284,0.1284,0,0,0.1142,0.1135,0.1157,0.1161,0.1164,0.1168,0.117,0.1201,0.1204,0.1216,0.1218,0.1226,0.1229,0.123,0.1283,0.1284,0,0,0,0.1138,0.1133,0.1147,0.116,0.117,0.1169,0.1172,0.1202,0.1208,0.1219,0.1226,0.123,0.123,0.1283,0.1283,0.1302,0,0,0,0.1137,0.1132,0.1146,0.1142,0.117,0.1189,0.1173,0.1206,0.121,0.1226,0.123,0.1231,0.1283,0.1283,0.1301,0.1328,0,0,0,0.1129,0.1131,0.1138,0.1141,0.1162,0.1188,0.1195,0.1207,0.1214,0.1229,0.1231,0.1282,0.1283,0.13,0.1326,0.1412,0,0,0,0.1117,0.1131,0.1138,0.1158,0.1161,0.1196,0.1195,0.122,0.1235,0.123,0.1283,0.1283,0.13,0.1324,0.1409,0.1426,0.1439,0,0,0.1127,0.1132,0.1145,0.1152,0.1183,0.119,0.1224,0.124,0.1247,0.127,0.1272,0.1302,0.1326,0.1411,0.1467,0.148,0,0,0,0.1144,0.1151,0.1163,0.1183,0.1208,0.1233,0.1248,0.1262,0.129,0.126,0.1311,0.1326,0.138,0.1384,0.1394,0.1287,0.1287,0.1287,0.1287,0.1137,0.1155,0.1175,0.12,0.1226,0.1264,0.1293,0.1315,0.1309,0.1328,0.1347,0.1435,0.1437,0.1445,0.1345,0.1345,0.1345,0.1345,0.1345,0.1142,0.1147,0.1178,0.1202,0.1236,0.1267,0.1329,0.1343,0.1421,0.1379,0.1431,0.141,0.1458,0.1347,0.1346,0.1346,0.1346,0.1346,0.1346,0.1122,0.1126,0.1146,0.1178,0.122,0.1269,0.1355,0.1406,0.1452,0.1499,0.1549,0.1549,0.1475,0.154,0.1541,0.1541,0.1542,0.1542,0.1542,0.1085,0.1106,0.1116,0.1155,0.1179,0.1253,0.1383,0.1465,0.1576,0.1597,0.1597,0.1502,0.1496,0.1488,0.155,0.1549,0.1548,0.1547,0.1546,0.1053,0.1061,0.1075,0.1094,0.1164,0.1229,0.1371,0.1559,0.167,0.1726,0.1666,0.1661,0.1673,0.1664,0.1661,0.1765,0.1765,0.1765,0.1765,0.1021,0.103,0.1042,0.1067,0.113,0.1219,0.1349,0.1477,0.1627,0.1667,0.167,0.159,0.1584,0.1586,0.1579,0.1572,0.1652,0.1652,0.1651,0.0996,0.1007,0.1006,0.104,0.1104,0.1209,0.1281,0.1334,0.1495,0.1639,0.1574,0.1772,0.166,0.1649,0.1654,0.1641,0.1631,0,0]},{"header":{"parameterUnit":"m.s-1","parameterCategory":2,"la1":30.2992,"la2":30.254,"lo1":-89.0895,"lo2":-89.0443,"dy":0.0025,"dx":0.0025,"nx":19,"ny":19,"refTime":"2026-03-10T03:00:00:Z","depth":"2","parameterNumber":3,"parameterNumberName":"V-component_of_CURRENTS"},"data":[0,0,0,-0.0109,-0.0109,-0.0145,-0.0145,-0.021,-0.021,0,0,0,0,0,0,0,0,0,0,0,-0.0095,-0.0095,-0.0109,-0.011,-0.0145,-0.0146,-0.0209,-0.021,0,0,0,0,0,0,0,0,0,0,0,-0.0095,-0.0095,-0.0096,-0.011,-0.0145,-0.0146,-0.0209,-0.0179,0,0,0,0,0,0,0,0,0,0,-0.0143,-0.0123,-0.0095,-0.0096,-0.011,-0.0145,-0.0146,-0.0178,-0.0181,-0.0197,0,-0.0197,0,-0.0203,-0.0214,-0.0214,0,0,0,-0.0116,-0.012,-0.0131,-0.0096,-0.011,-0.0145,-0.0131,-0.018,-0.0184,-0.0201,-0.0198,-0.02,-0.0204,-0.0215,-0.0215,-0.0233,-0.0233,0,0,-0.0114,-0.0103,-0.0128,-0.0133,-0.0113,-0.013,-0.0132,-0.0182,-0.0183,-0.0198,-0.0201,-0.0205,-0.0215,-0.0216,-0.0233,-0.0233,0,0,0,-0.0104,-0.0101,-0.0111,-0.0131,-0.0135,-0.0131,-0.0133,-0.018,-0.0184,-0.0202,-0.0206,-0.0215,-0.0216,-0.0234,-0.0233,-0.0175,0,0,0,-0.0103,-0.0095,-0.011,-0.0104,-0.0134,-0.0155,-0.0131,-0.0181,-0.0186,-0.0206,-0.0215,-0.0217,-0.0234,-0.0233,-0.0177,-0.0134,0,0,0,-0.0095,-0.0094,-0.0097,-0.0104,-0.0116,-0.0154,-0.0161,-0.0182,-0.0189,-0.0214,-0.0217,-0.0234,-0.0234,-0.0179,-0.0138,-0.0091,0,0,0,-0.0085,-0.0075,-0.0096,-0.0086,-0.0116,-0.0121,-0.0161,-0.0172,-0.0189,-0.0216,-0.0234,-0.0233,-0.018,-0.014,-0.0093,-0.0069,-0.0055,0,0,-0.0065,-0.0072,-0.0066,-0.0086,-0.0077,-0.0117,-0.011,-0.0151,-0.0186,-0.0221,-0.0221,-0.0176,-0.0138,-0.0091,-0.0034,-0.002,0,0,0,-0.0054,-0.0048,-0.0049,-0.005,-0.0066,-0.0071,-0.0113,-0.0132,-0.0158,-0.0193,-0.018,-0.0158,-0.013,-0.0122,-0.0111,-0.023,-0.023,-0.0231,-0.0231,-0.0011,-0.0019,-0.0003,-0.0013,-0.0017,-0.0042,-0.0046,-0.008,-0.0126,-0.0126,-0.0114,-0.0041,-0.0033,-0.0024,-0.0128,-0.0128,-0.0128,-0.0127,-0.0127,0.003,0.0041,0.0034,0.0046,0.0036,0.0038,0.0013,-0.001,-0.001,-0.0065,-0.0041,-0.0065,-0.0008,-0.0123,-0.0124,-0.0124,-0.0125,-0.0125,-0.0125,0.0061,0.0066,0.0071,0.0091,0.0109,0.0094,0.0152,0.0114,0.006,0.0079,0.0083,0.0082,0.001,0.0089,0.009,0.009,0.0091,0.0091,0.0091,0.009,0.0096,0.0123,0.014,0.0165,0.0213,0.0236,0.0256,0.0224,0.0165,0.0165,0.0033,0.0026,0.0022,0.0097,0.0096,0.0096,0.0095,0.0095,0.0128,0.013,0.0175,0.0203,0.0276,0.0373,0.0385,0.0421,0.0409,0.039,0.021,0.0205,0.0194,0.0184,0.0184,0.0297,0.0297,0.0297,0.0297,0.0156,0.0158,0.0228,0.0291,0.0384,0.045,0.0572,0.0533,0.0424,0.0328,0.0326,0.0271,0.0262,0.025,0.0239,0.0238,0.0365,0.0365,0.0365,0.0186,0.0202,0.0264,0.0324,0.0431,0.0557,0.0655,0.062,0.0454,0.0365,0.0314,0.0306,0.0217,0.0206,0.0178,0.0163,0.0157,0,0]}],[{"header":{"parameterUnit":"m.s-1","parameterCategory":2,"la1":30.2992,"la2":30.254,"lo1":-89.0895,"lo2":-89.0443,"dy":0.0025,"dx":0.0025,"nx":19,"ny":19,"refTime":"2026-03-10T03:00:00:Z","depth":"4","parameterNumber":2,"parameterNumberName":"U-component_of_CURRENTS"},"data":[0,0,0,0.0814,0.0816,0.0901,0.0901,0.0965,0.0965,0,0,0,0,0,0,0,0,0,0,0,0.0787,0.0788,0.0814,0.0816,0.09,0.0901,0.0965,0.0965,0,0,0,0,0,0,0,0,0,0,0,0.0787,0.0788,0.0789,0.0817,0.09,0.0901,0.0964,0.0912,0,0,0,0,0,0,0,0,0,0,0.0835,0.0819,0.0788,0.0789,0.0817,0.09,0.0901,0.091,0.0915,0.0914,0,0.0932,0,0.0948,0.0968,0.0968,0,0,0,0.0817,0.0814,0.0835,0.0789,0.0818,0.09,0.0863,0.0913,0.0919,0.092,0.0933,0.0936,0.095,0.0969,0.0969,0.104,0.104,0,0,0.0812,0.0803,0.0831,0.0839,0.0846,0.086,0.0865,0.0917,0.0926,0.0934,0.0938,0.0951,0.0969,0.0969,0.1039,0.104,0,0,0,0.0798,0.08,0.082,0.0836,0.0854,0.0862,0.0868,0.0924,0.0931,0.0939,0.0951,0.0969,0.097,0.1039,0.104,0.107,0,0,0,0.0795,0.0792,0.0818,0.0814,0.0854,0.0897,0.0874,0.0927,0.0934,0.0951,0.0969,0.097,0.1038,0.1039,0.1068,0.1078,0,0,0,0.0782,0.079,0.0802,0.0813,0.0849,0.0896,0.0907,0.0929,0.0941,0.0968,0.097,0.1038,0.1039,0.1067,0.1075,0.1116,0,0,0,0.0767,0.0782,0.0802,0.0825,0.0849,0.0896,0.0907,0.0948,0.0973,0.0969,0.1039,0.104,0.1066,0.1074,0.1114,0.098,0,0,0,0.0772,0.0782,0.0795,0.0815,0.0855,0.0884,0.0937,0.0975,0.0987,0.1017,0.1019,0.1069,0.1075,0.1116,0.104,0,0,0,0,0.0787,0.0799,0.0814,0.0846,0.0883,0.0934,0.0973,0.0999,0.105,0.1007,0.1081,0.1084,0.1108,0.1025,0.1044,0.1044,0.1044,0.1044,0.1044,0.0774,0.0799,0.0828,0.0868,0.0906,0.0974,0.1018,0.1062,0.1068,0.1101,0.1117,0.118,0.1093,0.1129,0.1129,0.113,0.113,0.113,0.113,0.0775,0.0788,0.084,0.0879,0.0939,0.0994,0.1073,0.1101,0.1173,0.1159,0.1181,0.1073,0.1133,0.1133,0.1132,0.1132,0.1131,0.1131,0.1131,0.0753,0.0763,0.0804,0.0868,0.0941,0.1016,0.1089,0.115,0.12,0.1232,0.116,0.1209,0.1197,0.1256,0.1256,0.1256,0.1256,0.1257,0.1257,0.0708,0.0747,0.0784,0.0857,0.0906,0.0987,0.1104,0.1154,0.1221,0.1183,0.1252,0.1223,0.1218,0.1205,0.126,0.126,0.1259,0.1259,0.1259,0.0669,0.0697,0.0742,0.0788,0.0887,0.093,0.1053,0.112,0.1169,0.1172,0.1159,0.1163,0.1142,0.114,0.1123,0.1156,0.1154,0.1153,0,0.0637,0.0654,0.071,0.0762,0.0814,0.0894,0.0933,0.1008,0.1073,0.1035,0.1171,0.1153,0.1155,0.1128,0.1124,0.1102,0,0,0,0.0616,0.0639,0.0662,0.0722,0.0774,0.0842,0.0937,0.0938,0.1054,0.1068,0.1115,0.1125,0.1207,0.1271,0.1249,0.1244,0.1221,0,0]},{"header":{"parameterUnit":"m.s-1","parameterCategory":2,"la1":30.2992,"la2":30.254,"lo1":-89.0895,"lo2":-89.0443,"dy":0.0025,"dx":0.0025,"nx":19,"ny":19,"refTime":"2026-03-10T03:00:00:Z","depth":"4","parameterNumber":3,"parameterNumberName":"V-component_of_CURRENTS"},"data":[0,0,0,-0.0125,-0.0126,-0.0155,-0.0155,-0.0197,-0.0197,0,0,0,0,0,0,0,0,0,0,0,-0.0116,-0.0117,-0.0125,-0.0126,-0.0155,-0.0155,-0.0197,-0.0197,0,0,0,0,0,0,0,0,0,0,0,-0.0116,-0.0117,-0.0117,-0.0126,-0.0155,-0.0155,-0.0197,-0.0175,0,0,0,0,0,0,0,0,0,0,-0.0146,-0.0136,-0.0117,-0.0117,-0.0126,-0.0155,-0.0155,-0.0173,-0.0176,-0.0183,0,-0.0186,0,-0.019,-0.0199,-0.02,0,0,0,-0.013,-0.0134,-0.0141,-0.0117,-0.0126,-0.0155,-0.0143,-0.0175,-0.0178,-0.0186,-0.0187,-0.0188,-0.0191,-0.02,-0.02,-0.0208,-0.0208,0,0,-0.0129,-0.0124,-0.0139,-0.0142,-0.0132,-0.0142,-0.0144,-0.0177,-0.018,-0.0187,-0.0189,-0.0191,-0.02,-0.02,-0.0208,-0.0208,0,0,0,-0.0121,-0.0123,-0.0129,-0.0141,-0.0144,-0.0143,-0.0145,-0.0178,-0.018,-0.019,-0.0192,-0.02,-0.0201,-0.0208,-0.0208,-0.0172,0,0,0,-0.012,-0.0118,-0.0128,-0.0126,-0.0143,-0.0161,-0.0146,-0.0178,-0.0181,-0.0192,-0.02,-0.0201,-0.0209,-0.0208,-0.0173,-0.0153,0,0,0,-0.0115,-0.0118,-0.012,-0.0126,-0.0136,-0.0161,-0.0164,-0.0179,-0.0182,-0.02,-0.0201,-0.0209,-0.0208,-0.0174,-0.0155,-0.0163,0,0,0,-0.0111,-0.0103,-0.012,-0.0111,-0.0136,-0.0133,-0.0164,-0.0171,-0.0182,-0.02,-0.0208,-0.0208,-0.0175,-0.0157,-0.0164,-0.0123,0,0,0,-0.0095,-0.0101,-0.0094,-0.011,-0.0096,-0.0129,-0.0121,-0.0153,-0.0179,-0.02,-0.02,-0.0173,-0.0155,-0.0163,-0.0098,0,0,0,0,-0.0084,-0.0079,-0.0078,-0.0077,-0.0084,-0.009,-0.0121,-0.0138,-0.0161,-0.0183,-0.0174,-0.0164,-0.017,-0.015,-0.0206,-0.0206,-0.0206,-0.0206,-0.0206,-0.0058,-0.0058,-0.0043,-0.0044,-0.0045,-0.0066,-0.0076,-0.0106,-0.0134,-0.0139,-0.0136,-0.0116,-0.0092,-0.014,-0.014,-0.0139,-0.0139,-0.0139,-0.0139,-0.0026,-0.0016,-0.0016,-0.0002,-0.0011,-0.001,-0.0037,-0.006,-0.0085,-0.0105,-0.0113,-0.0113,-0.0136,-0.0136,-0.0137,-0.0137,-0.0138,-0.0138,-0.0138,-0.0008,-0.0002,0.0005,0.0024,0.0033,0.0021,0.003,-0.0002,-0.0049,-0.0052,-0.0056,-0.0099,-0.0102,-0.0066,-0.0066,-0.0066,-0.0066,-0.0066,-0.0066,0.0004,0.0014,0.0033,0.005,0.0064,0.0077,0.0065,0.005,0.0002,-0.0008,-0.0048,-0.0092,-0.0095,-0.0099,-0.0065,-0.0065,-0.0065,-0.0065,-0.0065,0.0023,0.0025,0.0057,0.0074,0.0112,0.0123,0.0117,0.0094,0.0073,0.0044,0.0004,0.0,-0.0015,-0.0019,-0.0022,0.0037,0.0038,0.0038,0,0.0031,0.0035,0.0075,0.0111,0.0147,0.0152,0.0163,0.014,0.0078,0.0082,0.004,-0.0005,-0.0007,-0.0025,-0.0028,-0.003,0,0,0,0.0041,0.0053,0.008,0.0117,0.016,0.0171,0.0166,0.0159,0.01,0.0093,0.0054,0.005,-0.0008,-0.0061,-0.0093,-0.0096,-0.0105,0,0]}]]